DLH2WC EDDM-EDDC

Flight info

Callsign DLH2WC
Flight time 0h 34m
Altitude 24000
Route AKINI1N AKINI Y104 MAMOR L132 AGNAV/N0403F230 DCT SUPIL DCT KILNU L132 ABKIS Q240 DRN
Aircraft A320/M-SDE3FGHIRWY/LB1

Departure

Time 2026-05-05 19:08
Airport Munich Airport (EDDM)

Arrival

Time 2026-05-05 19:43
Airport Dresden Airport (EDDC)
Time Latitude Longitude Altitude Speed Heading
2026-05-05 18:42 48.35018 11.79369 1476 ft 0 kts 264°
2026-05-05 18:53 48.35020 11.79382 1476 ft 2 kts 244°
2026-05-05 18:53 48.35023 11.79404 1476 ft 2 kts 268°
2026-05-05 18:53 48.35025 11.79425 1476 ft 2 kts 262°
2026-05-05 18:54 48.35027 11.79447 1476 ft 2 kts 264°
2026-05-05 18:54 48.35028 11.79470 1475 ft 2 kts 263°
2026-05-05 18:54 48.35028 11.79493 1475 ft 2 kts 288°
2026-05-05 18:54 48.35022 11.79513 1475 ft 2 kts 309°
2026-05-05 18:55 48.35011 11.79527 1475 ft 2 kts 332°
2026-05-05 18:55 48.35000 11.79533 1475 ft 0 kts 351°
2026-05-05 18:55 48.34993 11.79534 1475 ft 1 kts 354°
2026-05-05 18:57 48.35009 11.79537 1475 ft 5 kts 14°
2026-05-05 18:57 48.35059 11.79581 1475 ft 11 kts 33°
2026-05-05 18:58 48.35145 11.79636 1475 ft 15 kts
2026-05-05 18:58 48.35255 11.79623 1474 ft 17 kts 354°
2026-05-05 18:58 48.35376 11.79601 1474 ft 17 kts 352°
2026-05-05 18:58 48.35499 11.79579 1474 ft 18 kts 355°
2026-05-05 18:59 48.35627 11.79559 1473 ft 18 kts 353°
2026-05-05 18:59 48.35760 11.79535 1472 ft 19 kts 353°
2026-05-05 18:59 48.35896 11.79512 1471 ft 19 kts 353°
2026-05-05 18:59 48.36015 11.79491 1469 ft 15 kts 353°
2026-05-05 19:00 48.36129 11.79472 1468 ft 17 kts 353°
2026-05-05 19:00 48.36221 11.79554 1467 ft 18 kts 82°
2026-05-05 19:00 48.36237 11.79758 1466 ft 20 kts 83°
2026-05-05 19:00 48.36254 11.79983 1464 ft 22 kts 84°
2026-05-05 19:01 48.36272 11.80226 1463 ft 24 kts 83°
2026-05-05 19:01 48.36292 11.80480 1461 ft 25 kts 84°
2026-05-05 19:01 48.36312 11.80747 1460 ft 26 kts 84°
2026-05-05 19:01 48.36333 11.81024 1458 ft 26 kts 83°
2026-05-05 19:02 48.36355 11.81300 1457 ft 26 kts 83°
2026-05-05 19:02 48.36376 11.81567 1456 ft 25 kts 83°
2026-05-05 19:02 48.36396 11.81827 1456 ft 22 kts 85°
2026-05-05 19:02 48.36395 11.81939 1456 ft 3 kts 87°
2026-05-05 19:03 48.36399 11.81962 1456 ft 0 kts 66°
2026-05-05 19:03 48.36400 11.81962 1456 ft 0 kts 66°
2026-05-05 19:04 48.36402 11.81971 1456 ft 2 kts 61°
2026-05-05 19:05 48.36432 11.81999 1456 ft 7 kts
2026-05-05 19:05 48.36493 11.81994 1456 ft 9 kts 353°
2026-05-05 19:05 48.36551 11.81984 1456 ft 2 kts 354°
2026-05-05 19:05 48.36559 11.81983 1456 ft 0 kts 354°
2026-05-05 19:06 48.36563 11.81982 1456 ft 2 kts 354°
2026-05-05 19:06 48.36628 11.81970 1456 ft 13 kts 352°
2026-05-05 19:07 48.36670 11.81897 1456 ft 6 kts 266°
2026-05-05 19:07 48.36669 11.81874 1455 ft 12 kts 265°
2026-05-05 19:07 48.36629 11.81339 1457 ft 88 kts 264°
2026-05-05 19:07 48.36532 11.80091 1462 ft 149 kts 264°
2026-05-05 19:08 48.36404 11.78407 1840 ft 168 kts 265°
2026-05-05 19:08 48.36275 11.76699 2581 ft 167 kts 265°
2026-05-05 19:08 48.36139 11.75018 3405 ft 162 kts 266°
2026-05-05 19:08 48.36008 11.73336 3919 ft 169 kts 266°
2026-05-05 19:09 48.35865 11.71535 4455 ft 177 kts 265°
2026-05-05 19:09 48.35796 11.69694 5090 ft 177 kts 278°
2026-05-05 19:09 48.36153 11.67948 5696 ft 180 kts 297°
2026-05-05 19:09 48.36937 11.66469 6325 ft 185 kts 315°
2026-05-05 19:10 48.38049 11.65511 6919 ft 195 kts 336°
2026-05-05 19:10 48.39422 11.65025 7397 ft 209 kts 344°
2026-05-05 19:10 48.40906 11.64594 7734 ft 231 kts 344°
2026-05-05 19:10 48.42533 11.64106 8163 ft 249 kts 344°
2026-05-05 19:11 48.44324 11.63640 8617 ft 270 kts 352°
2026-05-05 19:11 48.46250 11.63836 9083 ft 293 kts 10°
2026-05-05 19:11 48.48192 11.64945 9624 ft 304 kts 27°
2026-05-05 19:11 48.49986 11.66610 9817 ft 308 kts 32°
2026-05-05 19:12 48.51764 11.68448 9818 ft 308 kts 33°
2026-05-05 19:12 48.53514 11.70293 9839 ft 319 kts 33°
2026-05-05 19:12 48.55421 11.72291 9840 ft 338 kts 33°
2026-05-05 19:12 48.57400 11.74350 9815 ft 351 kts 33°
2026-05-05 19:13 48.59405 11.76428 9827 ft 353 kts 33°
2026-05-05 19:13 48.61413 11.78503 9839 ft 353 kts 33°
2026-05-05 19:13 48.63438 11.80594 9838 ft 354 kts 33°
2026-05-05 19:13 48.65487 11.82709 10325 ft 361 kts 32°
2026-05-05 19:14 48.67542 11.84831 11231 ft 360 kts 33°
2026-05-05 19:14 48.69626 11.86983 12031 ft 362 kts 33°
2026-05-05 19:14 48.71705 11.89132 12742 ft 367 kts 32°
2026-05-05 19:14 48.73801 11.91299 13421 ft 371 kts 33°
2026-05-05 19:15 48.75995 11.93355 14106 ft 374 kts 27°
2026-05-05 19:15 48.78289 11.95236 14760 ft 378 kts 26°
2026-05-05 19:15 48.80636 11.97117 15342 ft 384 kts 27°
2026-05-05 19:15 48.82997 11.99028 15952 ft 388 kts 27°
2026-05-05 19:16 48.85377 12.00978 16546 ft 393 kts 27°
2026-05-05 19:16 48.87777 12.02961 17144 ft 396 kts 27°
2026-05-05 19:16 48.90184 12.04960 17723 ft 399 kts 28°
2026-05-05 19:16 48.92614 12.06985 18291 ft 403 kts 28°
2026-05-05 19:17 48.95076 12.09042 18826 ft 406 kts 28°
2026-05-05 19:17 48.97570 12.11128 19357 ft 410 kts 28°
2026-05-05 19:17 49.00051 12.13207 19872 ft 413 kts 29°
2026-05-05 19:17 49.02570 12.15321 20374 ft 417 kts 29°
2026-05-05 19:18 49.05120 12.17466 20881 ft 420 kts 30°
2026-05-05 19:18 49.07669 12.19614 21397 ft 423 kts 30°
2026-05-05 19:18 49.10234 12.21779 21872 ft 426 kts 30°
2026-05-05 19:18 49.12844 12.23982 22335 ft 429 kts 30°
2026-05-05 19:19 49.15459 12.26192 22808 ft 431 kts 30°
2026-05-05 19:19 49.18087 12.28416 23265 ft 434 kts 30°
2026-05-05 19:19 49.20719 12.30645 23667 ft 437 kts 30°
2026-05-05 19:19 49.23386 12.32911 23767 ft 448 kts 30°
2026-05-05 19:20 49.26156 12.35270 23759 ft 460 kts 30°
2026-05-05 19:20 49.28944 12.37643 23761 ft 469 kts 30°
2026-05-05 19:20 49.31821 12.40092 23766 ft 471 kts 30°
2026-05-05 19:20 49.34676 12.42525 23762 ft 471 kts 30°
2026-05-05 19:21 49.37510 12.44944 23763 ft 470 kts 30°
2026-05-05 19:21 49.40390 12.47406 23765 ft 470 kts 30°
2026-05-05 19:21 49.43274 12.49694 23754 ft 472 kts 23°
2026-05-05 19:21 49.46388 12.51318 23767 ft 472 kts 16°
2026-05-05 19:22 49.49527 12.52640 23764 ft 472 kts 15°
2026-05-05 19:22 49.52701 12.53943 23762 ft 472 kts 15°
2026-05-05 19:22 49.55861 12.55281 23763 ft 472 kts 15°
2026-05-05 19:22 49.59019 12.56664 23762 ft 472 kts 16°
2026-05-05 19:23 49.62157 12.58074 23760 ft 472 kts 16°
2026-05-05 19:23 49.65312 12.59515 23760 ft 472 kts 17°
2026-05-05 19:23 49.68441 12.60955 23760 ft 472 kts 17°
2026-05-05 19:23 49.71578 12.62410 23758 ft 471 kts 17°
2026-05-05 19:24 49.74697 12.63862 23760 ft 471 kts 17°
2026-05-05 19:24 49.77843 12.65330 23761 ft 471 kts 17°
2026-05-05 19:24 49.80956 12.66782 23764 ft 471 kts 17°
2026-05-05 19:24 49.84091 12.68244 23764 ft 471 kts 17°
2026-05-05 19:25 49.87220 12.69708 23763 ft 470 kts 17°
2026-05-05 19:25 49.90350 12.71175 23764 ft 471 kts 17°
2026-05-05 19:25 49.93460 12.72631 23760 ft 470 kts 17°
2026-05-05 19:25 49.96567 12.74090 23586 ft 461 kts 17°
2026-05-05 19:26 49.99525 12.75792 23323 ft 445 kts 25°
2026-05-05 19:26 50.02243 12.77805 22908 ft 436 kts 27°
2026-05-05 19:26 50.04963 12.79935 22030 ft 438 kts 27°
2026-05-05 19:26 50.07674 12.82050 21230 ft 438 kts 27°
2026-05-05 19:27 50.10361 12.84116 20558 ft 435 kts 26°
2026-05-05 19:27 50.13052 12.86162 19933 ft 431 kts 26°
2026-05-05 19:27 50.15750 12.88197 19317 ft 426 kts 26°
2026-05-05 19:27 50.18403 12.90188 18687 ft 423 kts 25°
2026-05-05 19:28 50.21002 12.92137 18083 ft 419 kts 25°
2026-05-05 19:28 50.23644 12.94119 17492 ft 415 kts 25°
2026-05-05 19:28 50.26203 12.96039 16954 ft 410 kts 25°
2026-05-05 19:28 50.28764 12.97963 16378 ft 407 kts 25°
2026-05-05 19:29 50.31303 12.99873 15786 ft 404 kts 25°
2026-05-05 19:29 50.33805 13.01754 15265 ft 400 kts 26°
2026-05-05 19:29 50.36293 13.03631 14709 ft 397 kts 26°
2026-05-05 19:29 50.38764 13.05492 14157 ft 394 kts 26°
2026-05-05 19:30 50.41221 13.07346 13624 ft 390 kts 26°
2026-05-05 19:30 50.43621 13.09160 13093 ft 386 kts 26°
2026-05-05 19:30 50.46019 13.10972 12556 ft 382 kts 27°
2026-05-05 19:30 50.48410 13.12782 11959 ft 379 kts 27°
2026-05-05 19:31 50.50745 13.14554 11381 ft 375 kts 27°
2026-05-05 19:31 50.53062 13.16315 10888 ft 369 kts 27°
2026-05-05 19:31 50.55356 13.18061 10446 ft 362 kts 27°
2026-05-05 19:31 50.57563 13.19738 10234 ft 338 kts 27°
2026-05-05 19:32 50.59592 13.21280 10100 ft 321 kts 27°
2026-05-05 19:32 50.61579 13.22795 9912 ft 308 kts 27°
2026-05-05 19:32 50.63439 13.24214 9802 ft 291 kts 27°
2026-05-05 19:32 50.65249 13.25600 9772 ft 290 kts 27°
2026-05-05 19:33 50.67054 13.26987 9748 ft 287 kts 27°
2026-05-05 19:33 50.68823 13.28341 9315 ft 284 kts 27°
2026-05-05 19:33 50.70601 13.29705 8788 ft 287 kts 27°
2026-05-05 19:33 50.72391 13.31077 8338 ft 285 kts 27°
2026-05-05 19:34 50.74144 13.32421 7958 ft 275 kts 27°
2026-05-05 19:34 50.75837 13.33719 7614 ft 270 kts 27°
2026-05-05 19:34 50.77499 13.34997 7280 ft 268 kts 27°
2026-05-05 19:35 50.80853 13.37578 6638 ft 271 kts 27°
2026-05-05 19:35 50.82555 13.38888 6288 ft 270 kts 27°
2026-05-05 19:35 50.84233 13.40184 5953 ft 268 kts 27°
2026-05-05 19:35 50.85879 13.41455 5673 ft 264 kts 27°
2026-05-05 19:36 50.87517 13.42719 5446 ft 257 kts 27°
2026-05-05 19:36 50.89080 13.43954 5179 ft 253 kts 30°
2026-05-05 19:36 50.90551 13.45413 4974 ft 244 kts 38°
2026-05-05 19:36 50.91840 13.47029 4957 ft 233 kts 41°
2026-05-05 19:37 50.93084 13.48688 4957 ft 233 kts 42°
2026-05-05 19:37 50.94313 13.50370 4956 ft 232 kts 42°
2026-05-05 19:37 50.95504 13.52017 4936 ft 221 kts 42°
2026-05-05 19:37 50.96630 13.53580 4779 ft 217 kts 43°
2026-05-05 19:38 50.97770 13.55165 4492 ft 216 kts 42°
2026-05-05 19:38 50.98894 13.56725 4209 ft 216 kts 42°
2026-05-05 19:38 51.00029 13.58299 3925 ft 215 kts 42°
2026-05-05 19:38 51.01152 13.59854 3639 ft 214 kts 43°
2026-05-05 19:39 51.02257 13.61378 3357 ft 210 kts 42°
2026-05-05 19:39 51.03339 13.62872 3074 ft 200 kts 42°
2026-05-05 19:39 51.04360 13.64283 2812 ft 192 kts 42°
2026-05-05 19:39 51.05339 13.65635 2560 ft 181 kts 42°
2026-05-05 19:40 51.06263 13.66912 2382 ft 172 kts 42°
2026-05-05 19:40 51.07159 13.68150 2172 ft 169 kts 41°
2026-05-05 19:40 51.07998 13.69308 1915 ft 160 kts 41°
2026-05-05 19:40 51.08806 13.70422 1704 ft 148 kts 40°
2026-05-05 19:41 51.09560 13.71464 1481 ft 138 kts 39°
2026-05-05 19:41 51.10274 13.72438 1328 ft 133 kts 40°
2026-05-05 19:41 51.10966 13.73373 1190 ft 130 kts 40°
2026-05-05 19:41 51.11649 13.74329 1007 ft 129 kts 41°
2026-05-05 19:42 51.12317 13.75254 829 ft 128 kts 41°
2026-05-05 19:42 51.12954 13.76140 749 ft 103 kts 39°
2026-05-05 19:42 51.13367 13.76713 736 ft 61 kts 40°
2026-05-05 19:42 51.13686 13.77143 724 ft 58 kts 40°
2026-05-05 19:43 51.13874 13.77404 716 ft 20 kts 40°
2026-05-05 19:43 51.13872 13.77568 714 ft 16 kts 131°
2026-05-05 19:43 51.13794 13.77710 713 ft 16 kts 135°
2026-05-05 19:43 51.13728 13.77685 714 ft 10 kts 220°
2026-05-05 19:44 51.13665 13.77597 716 ft 13 kts 221°
2026-05-05 19:44 51.13587 13.77491 720 ft 15 kts 221°
2026-05-05 19:44 51.13501 13.77373 723 ft 17 kts 221°
2026-05-05 19:44 51.13405 13.77240 728 ft 19 kts 221°
2026-05-05 19:45 51.13302 13.77098 733 ft 20 kts 221°
2026-05-05 19:45 51.13193 13.76948 736 ft 21 kts 221°
2026-05-05 19:45 51.13080 13.76792 741 ft 20 kts 221°
2026-05-05 19:45 51.12978 13.76650 744 ft 18 kts 221°
2026-05-05 19:46 51.12883 13.76519 748 ft 17 kts 221°
2026-05-05 19:46 51.12783 13.76473 749 ft 16 kts 138°
2026-05-05 19:46 51.12727 13.76572 748 ft 8 kts 131°
2026-05-05 19:46 51.12687 13.76646 749 ft 8 kts 131°
2026-05-05 19:47 51.12648 13.76673 749 ft 7 kts 203°
2026-05-05 19:47 51.12607 13.76623 749 ft 7 kts 221°
2026-05-05 19:47 51.12595 13.76606 750 ft 0 kts 221°